Simultaneous Nadir Overpasses (SNOs) Predictions

Prediction of SNOs between AURA and NPP Satellite Orbit:

Table of predicted SNOs for the next 14.0 days since TLE Epoch: 3/10/2017
Index Date (AURA) Time (AURA) Lat,Lon (AURA) SZA (AURA ) Date (NPP) Time (NPP) Lat,Lon (NPP) SZA (NPP ) Distance(km) Time Diff (sec)
1 03/11/2017 03:41:38 -79.57,-158.03 83.68 03/11/2017 03:41:23 -79.57,-158.05 83.66 0.45 15
2 03/11/2017 04:30:57 79.82, 11.47 95.94 03/11/2017 04:31:59 79.83, 11.61 95.87 3.08 62
3 03/13/2017 19:08:45 79.36, 148.76 95.58 03/13/2017 19:07:36 79.36, 148.68 95.65 1.66 69
4 03/13/2017 19:58:05 -79.64, -41.67 84.84 03/13/2017 19:58:13 -79.64, -41.66 84.85 0.22 8
5 03/16/2017 11:25:12 79.46, -94.71 94.37 03/16/2017 11:24:26 79.46, -94.72 94.40 0.17 46
6 03/16/2017 12:14:32 -79.73, 74.90 86.06 03/16/2017 12:15:03 -79.74, 75.00 86.10 2.08 31
7 03/19/2017 03:41:38 79.58, 22.04 93.11 03/19/2017 03:41:15 79.59, 22.17 93.10 2.79 23
8 03/19/2017 04:31:01 -79.75,-169.12 87.16 03/19/2017 04:31:56 -79.74,-169.18 87.19 1.26 55
9 03/21/2017 19:10:27 -74.82, -49.56 82.13 03/21/2017 19:09:13 -75.10, -51.03 81.90 52.96 74
10 03/21/2017 19:58:06 79.62, 138.21 91.97 03/21/2017 19:58:07 79.63, 138.23 91.97 0.43 1
11 03/24/2017 11:25:11 -79.52, 85.73 88.95 03/24/2017 11:24:18 -79.53, 85.89 88.94 3.16 53




NCC Satellite Simultaneous Nadir Overpasses (SNOs) Prediction Service
